Weather History for KMWH - November, 2012

Change the Weather History Date:

Monday, November 12, 2012

  Actual Average Record
Temperature  
Mean Temperature 34 °F 39 °F  
Max Temperature 36 °F 48 °F 68 °F (1999)
Min Temperature 32 °F 30 °F 10 °F (1985)
Degree Days  
Heating Degree Days 31 26  
Month to date heating degree days 263 288  
Since 1 July heating degree days 788 925  
Cooling Degree Days 0 0  
Month to date cooling degree days 0 0  
Year to date cooling degree days 719 615  
Moisture  
Dew Point 30 °F    
Average Humidity 86    
Maximum Humidity 89    
Minimum Humidity 82    
Precipitation  
Precipitation 0.33 in 0.04 in 0.33 in (2012)
Month to date precipitation 0.62 0.46  
Year to date precipitation 7.22 6.93  
Sea Level Pressure  
Sea Level Pressure 30.24 in    
Wind  
Wind Speed 2 mph (NW)    
Max Wind Speed 6 mph    
Max Gust Speed 6 mph    
Visibility 4 miles    
Events Fog , Rain , Snow    
T = Trace of Precipitation, MM = Missing Value Source: NWS Daily Summary

Daily Weather History Graph

Daily Weather History Graph

Search for Another Location

Airport or City:

Trip Planner

Search our weather history database for the weather conditions in past years. The results will help you decide how hot, cold, wet, or windy it might be!

Date:

Astronomy

Nov. 12, 2012 Rise Set
Actual Time 6:57 AM PST 4:24 PM PST
Civil Twilight 6:24 AM PST 4:57 PM PST
Nautical Twilight 5:47 AM PST 5:34 PM PST
Astronomical Twilight 5:11 AM PST 6:10 PM PST
Moon 5:26 AM PST (11/12) 3:35 PM PST (11/12)
Length of Visible Light 10h 33m
Length of Day
9h 27m
Waning Crescent, 2% of the Moon is Illuminated
Nov 12
Waning Crescent
Nov 13
New
Nov 20
First Quarter
Nov 28
Full
Dec 6
Last Quarter

Hourly Weather History & Observations

Time (PST) Temp. Windchill Dew Point Humidity Pressure Visibility Wind Dir Wind Speed Gust Speed Precip Events Conditions
12:10 AM 33.8 °F - 30.2 °F 87% 30.25 in 1.0 mi Calm Calm - 0.02 in Snow Light Snow
12:52 AM 33.1 °F - 30.0 °F 89% 30.28 in 1.2 mi Calm Calm - 0.05 in Snow Light Snow
1:15 AM 33.8 °F - 30.2 °F 87% 30.24 in 1.0 mi Calm Calm - 0.02 in Snow Light Snow
1:42 AM 33.8 °F - 30.2 °F 87% 30.24 in 1.0 mi Calm Calm - 0.07 in Snow Light Snow
1:52 AM 33.1 °F - 30.9 °F 92% 30.28 in 1.2 mi Calm Calm - 0.08 in Snow Light Snow
2:52 AM 33.1 °F 28.7 °F 30.0 °F 89% 30.27 in 1.5 mi SSE 4.6 mph - 0.03 in Snow Light Snow
3:52 AM 33.8 °F - 30.2 °F 87% 30.22 in 1.8 mi Calm Calm - N/A Snow Light Snow
4:01 AM 33.8 °F - 30.2 °F 87% 30.21 in 3.0 mi Calm Calm - 0.00 in Snow Light Snow
4:15 AM 33.8 °F - 30.2 °F 87% 30.22 in 2.5 mi Calm Calm - N/A Snow Light Snow
4:34 AM 33.8 °F - 30.2 °F 87% 30.21 in 3.0 mi Calm Calm - N/A Snow Light Snow
4:52 AM 33.1 °F 30.0 °F 30.0 °F 89% 30.25 in 4.0 mi NNW 3.5 mph - 0.02 in Snow Light Snow
5:19 AM 33.8 °F 29.6 °F 30.2 °F 87% 30.20 in 4.0 mi NNW 4.6 mph - 0.00 in   Overcast
5:47 AM 33.8 °F 30.8 °F 30.2 °F 87% 30.20 in 4.0 mi North 3.5 mph - 0.00 in   Overcast
5:52 AM 33.1 °F 30.0 °F 30.0 °F 89% 30.24 in 4.0 mi North 3.5 mph - 0.00 in   Overcast
6:52 AM 33.1 °F 28.7 °F 30.0 °F 89% 30.24 in 7.0 mi North 4.6 mph - N/A   Overcast
7:40 AM 33.8 °F 30.8 °F 30.2 °F 87% 30.20 in 6.0 mi North 3.5 mph - N/A   Overcast
7:52 AM 33.1 °F 28.7 °F 30.0 °F 89% 30.25 in 4.0 mi NNW 4.6 mph - 0.00 in   Overcast
8:24 AM 33.8 °F - 30.2 °F 87% 30.21 in 4.0 mi Calm Calm - 0.02 in   Overcast
8:52 AM 33.1 °F 30.0 °F 30.0 °F 89% 30.25 in 4.0 mi West 3.5 mph - 0.03 in   Overcast
9:02 AM 33.8 °F - 30.2 °F 87% 30.21 in 2.5 mi Calm Calm - 0.01 in Snow Light Snow
9:08 AM 33.8 °F - 30.2 °F 87% 30.21 in 3.0 mi Calm Calm - 0.01 in Rain Light Rain
9:27 AM 33.8 °F - 30.2 °F 87% 30.21 in 2.0 mi Calm Calm - 0.03 in Snow Light Snow
9:31 AM 33.8 °F 30.8 °F 30.2 °F 87% 30.21 in 1.8 mi NW 3.5 mph - 0.03 in Snow Light Snow
9:52 AM 33.1 °F 30.0 °F 30.9 °F 92% 30.25 in 1.8 mi NW 3.5 mph - 0.05 in Snow Light Snow
10:14 AM 33.8 °F - 30.2 °F 87% 30.21 in 2.5 mi Calm Calm - 0.01 in   Overcast
10:49 AM 33.8 °F 30.8 °F 30.2 °F 87% 30.22 in 3.0 mi WNW 3.5 mph - 0.02 in   Overcast
10:52 AM 33.1 °F 30.0 °F 30.0 °F 89% 30.26 in 3.0 mi WNW 3.5 mph - 0.02 in   Overcast
11:40 AM 33.8 °F 30.8 °F 30.2 °F 87% 30.21 in 4.0 mi West 3.5 mph - N/A   Overcast
11:52 AM 34.0 °F - 30.9 °F 89% 30.25 in 3.0 mi Calm Calm - N/A   Overcast
12:52 PM 34.0 °F - 30.9 °F 89% 30.24 in 4.0 mi Calm Calm - N/A   Overcast
1:52 PM 35.1 °F 31.0 °F 30.9 °F 85% 30.25 in 6.0 mi West 4.6 mph - N/A   Overcast
2:52 PM 35.1 °F - 30.9 °F 85% 30.24 in 6.0 mi Calm Calm - N/A   Overcast
3:23 PM 35.6 °F - 30.2 °F 81% 30.20 in 5.0 mi Calm Calm - N/A   Overcast
3:52 PM 34.0 °F - 30.9 °F 89% 30.25 in 7.0 mi Calm Calm - N/A   Overcast
4:27 PM 33.8 °F - 30.2 °F 87% 30.21 in 6.0 mi Calm Calm - N/A   Overcast
4:52 PM 34.0 °F - 30.9 °F 89% 30.25 in 7.0 mi Calm Calm - N/A   Overcast
5:35 PM 33.8 °F 29.6 °F 30.2 °F 87% 30.22 in 1.5 mi NNW 4.6 mph - N/A   Overcast
5:45 PM 33.8 °F 29.6 °F 30.2 °F 87% 30.22 in 1.5 mi NNW 4.6 mph - N/A   Overcast
5:49 PM 33.8 °F - 30.2 °F 87% 30.22 in 3.0 mi Calm Calm - N/A   Overcast
5:52 PM 33.1 °F - 30.0 °F 89% 30.26 in 3.0 mi Calm Calm - N/A   Overcast
6:00 PM 33.8 °F 30.8 °F 30.2 °F 87% 30.22 in 2.5 mi NW 3.5 mph - N/A   Mostly Cloudy
6:08 PM 32.0 °F 28.7 °F 30.2 °F 93% 30.22 in 3.0 mi North 3.5 mph - N/A   Scattered Clouds
6:16 PM 32.0 °F - 28.4 °F 87% 30.22 in 1.8 mi Calm Calm - N/A   Partly Cloudy
6:23 PM 32.0 °F - 30.2 °F 93% 30.23 in 0.8 mi Calm Calm - N/A   Mist
6:31 PM 33.8 °F - 30.2 °F 87% 30.23 in 0.5 mi Calm Calm - N/A Fog Fog
6:52 PM 33.1 °F - 30.0 °F 89% 30.28 in 0.8 mi Calm Calm - N/A   Overcast
7:52 PM 34.0 °F 31.0 °F 30.9 °F 89% 30.28 in 7.0 mi NNW 3.5 mph - N/A   Overcast
8:52 PM 35.1 °F - 30.9 °F 85% 30.30 in 10.0 mi Calm Calm - N/A   Overcast
9:52 PM 34.0 °F 31.0 °F 30.0 °F 85% 30.30 in 8.0 mi North 3.5 mph - N/A   Overcast
10:52 PM 33.1 °F - 30.0 °F 89% 30.32 in 9.0 mi Calm Calm - N/A   Overcast
11:38 PM 33.8 °F - 28.4 °F 81% 30.27 in 9.0 mi Calm Calm - N/A   Scattered Clouds
11:52 PM 33.1 °F 30.0 °F 28.9 °F 85% 30.32 in 10.0 mi WNW 3.5 mph - N/A   Clear